Ogden Hill AFB, UT

7:38 PM MST on December 16, 2017 (GMT -0700)
Hill Air Force Base

Weather History for KHIF - December, 2013

Change the Weather History Date:

Friday, December 27, 2013

  Actual Average Record
Temperature  
Mean Temperature 24 °F -  
Max Temperature 31 °F 33 °F 93 °F (1998)
Min Temperature 17 °F 21 °F 3 °F (2015)
Degree Days  
Heating Degree Days 41    
Moisture  
Dew Point 15 °F    
Average Humidity 70    
Maximum Humidity 86    
Minimum Humidity 57    
Precipitation  
Precipitation 0.00 in - - ()
Snow  
Snow 0.00 in - - ()
Snow Depth 6.00 in    
Sea Level Pressure  
Sea Level Pressure 30.44 in    
Wind  
Wind Speed 5 mph (East)    
Max Wind Speed 22 mph    
Max Gust Speed 29 mph    
Visibility 10 miles    
Events      
Averages and records for this station are not official NWS values.
T = Trace of Precipitation, MM = Missing Value Source: NWS Daily Summary

Daily Weather History Graph

Daily Weather History Graph

Search for Another Location

Airport or City:

Trip Planner

Search our weather history database for the weather conditions in past years. The results will help you decide how hot, cold, wet, or windy it might be!

Date:

Astronomy

Dec. 27, 2013 Rise Set
Actual Time 7:52 AM MST 5:06 PM MST
Civil Twilight 7:21 AM MST 5:37 PM MST
Nautical Twilight 6:46 AM MST 6:12 PM MST
Astronomical Twilight 6:12 AM MST 6:45 PM MST
Moon 2:26 AM MST (12/27) 1:20 PM MST (12/27)
Length of Visible Light 10h 16m
Length of Day
9h 13m
Waning Crescent, 28% of the Moon is Illuminated
Dec 27
Waning Crescent
Jan 1
New
Jan 7
First Quarter
Jan 15
Full
Jan 23
Last Quarter

Hourly Weather History & Observations

Time (MST) Temp. Windchill Dew Point Humidity Pressure Visibility Wind Dir Wind Speed Gust Speed Precip Events Conditions
12:58 AM 21.9 °F - 12.7 °F 68% 30.55 in 10.0 mi ENE 2.3 mph - N/A   Clear
1:58 AM 22.3 °F 17.6 °F 12.9 °F 67% 30.53 in 10.0 mi NE 3.5 mph - N/A   Clear
2:58 AM 21.7 °F - 12.4 °F 67% 30.54 in 10.0 mi NE 2.3 mph - N/A   Clear
3:58 AM 20.7 °F - 12.0 °F 69% 30.56 in 10.0 mi ENE 2.3 mph - N/A   Clear
4:58 AM 19.9 °F - 12.6 °F 73% 30.55 in 10.0 mi ESE 2.3 mph - N/A   Clear
5:58 AM 19.8 °F - 11.7 °F 71% 30.56 in 10.0 mi NE 2.3 mph - N/A   Clear
6:58 AM 19.6 °F 14.5 °F 11.3 °F 70% 30.57 in 10.0 mi NE 3.5 mph - N/A   Clear
7:58 AM 17.6 °F 1.7 °F 10.4 °F 73% 30.58 in 10.0 mi East 18.4 mph - N/A   Clear
8:58 AM 21.2 °F 5.2 °F 12.2 °F 68% 30.57 in 10.0 mi East 21.9 mph - N/A   Clear
9:58 AM 22.5 °F 7.2 °F 12.6 °F 66% 30.57 in 10.0 mi ESE 20.7 mph 28.8 mph N/A   Clear
10:58 AM 27.9 °F 24.0 °F 14.7 °F 58% 30.54 in 10.0 mi East 3.5 mph - N/A   Clear
11:58 AM 28.9 °F 21.1 °F 15.8 °F 58% 30.51 in 10.0 mi East 8.1 mph - N/A   Clear
12:58 PM 30.7 °F 27.3 °F 17.2 °F 57% 30.47 in 10.0 mi ESE 3.5 mph - N/A   Clear
1:58 PM 31.5 °F - 19.8 °F 62% 30.43 in 10.0 mi WNW 1.2 mph - N/A   Clear
2:58 PM 31.8 °F - 19.4 °F 60% 30.40 in 10.0 mi SW 2.3 mph - N/A   Clear
3:58 PM 30.2 °F 25.4 °F 19.4 °F 64% 30.39 in 10.0 mi NW 4.6 mph - N/A   Clear
4:58 PM 27.5 °F - 18.0 °F 67% 30.38 in 10.0 mi NNW 2.3 mph - N/A   Clear
5:58 PM 24.1 °F - 16.7 °F 73% 30.39 in 10.0 mi NW 2.3 mph - N/A   Clear
6:58 PM 23.7 °F 17.8 °F 17.1 °F 76% 30.40 in 10.0 mi NNW 4.6 mph - N/A   Clear
7:58 PM 22.6 °F 16.5 °F 16.0 °F 76% 30.38 in 10.0 mi East 4.6 mph - N/A   Clear
8:58 PM 25.0 °F 19.3 °F 16.0 °F 69% 30.34 in 10.0 mi ESE 4.6 mph - N/A   Clear
9:58 PM 23.9 °F 19.5 °F 16.3 °F 73% 30.32 in 10.0 mi ESE 3.5 mph - N/A   Clear
10:23 PM 19.4 °F 9.5 °F 14.0 °F 80% 30.22 in 10.0 mi South 8.1 mph - N/A   Clear
10:33 PM 19.4 °F 7.9 °F 15.8 °F 86% 30.22 in 10.0 mi SSE 10.4 mph - N/A   Clear
10:58 PM 20.3 °F 13.8 °F 16.5 °F 85% 30.31 in 10.0 mi SSE 4.6 mph - N/A   Clear
11:58 PM 22.8 °F 18.2 °F 16.2 °F 76% 30.29 in 10.0 mi North 3.5 mph - N/A   Clear